Погода Нижний Чир

Погода Нижний Чир : погода сейчас, прогноз погоды и архив. Всё, что Вы хотите узнать о погоде Нижний Чир!

Хотите узнать прогноз погоды Нижний Чир? Тогда Вам сюда: Погода Нижний Чир

Поиск расширенной информации на нашем сайте:

Другие новости

Новости СМИ2

Главная страница сайта

Новости сайта

02.10.2013

Напоминаем, что на нашем новом сайте вы можете получить высокодетализированные прогнозы погоды по пунктам России, СНГ и мира (включающие важные для авиации метеовеличины, такие как направление и скорость ветра, видимость, явления погоды, количество и форма облачности, нижняя и верхняя граница облачности), а также ознакомиться с разнообразными материалами по авиационной метеорологии и подборкой полезных ссылок на эту тему.

Сайт Метеоцентр.Азия посвящён разработке технологий оптимизации авиаметеорологического обслуживания, включая проектирование и перспективное создание нескольких автоматизированных авиаметеорологических систем:
- система выпуска высокодетальных прогностических карт явлений погоды для нижнего воздушного пространства по России и ближнему зарубежью;
- система верификации прогнозов TAF (выпускаемых синоптиками официальных АМСГ РФ и ближнего зарубежья) и AUTOTAF (выпускаемых сайтом Метеоцентр.Азия) - выявление ошибок, онлайн-сопоставление с фактической погодой METAR, автоматическое внесение коррективов в прогнозы при резком отклонении фактической погоды от прогноза, подсчёт оправдываемости прогнозов по элементам и в целом;
- система обработки, анализа и отображения авиаметеорологической информации для применения провайдерами метеорологической информации.

Рекомендуем: Клиновая завдижка гранар.

Погода Нижний Чир - сегодня

Время (UTC), дата Ветер
(°,м/с) 
Видим.   Явления Облачность Т
(°С)
Тd
(°С)
f(%) Тe
(°С)
Pmin
(гПа)
dP
(гПа)
Po
(мм)
O2
(г/м3)
Тmin Tmax R s Состояние
почвы
03 20.04.17 290 (З) 6{13}  20000 м    9/9 600 м 
[Sc]
+1.4 -2.3 76 -2  1019.6  2.1  758  304  +1.3    0.3    влажная 
06 20.04.17 310 (СЗ) 5{11}  20000 м    9/9 600 м 
[Sc]
+1.6 -3.5 69 -1  1021.3  1.6  759  304  +1.2         
09 20.04.17 320 (СЗ) 20000 м    8/8 600 м 
[Cu med, cong]
+5.1 -2.4 58 +3  1022.1  760  301           
12 20.04.17 360 (С) 20000 м    3/0 верхняя 
[Ci fib]
+8.1 -0.9 53 +7  1021.7  -0.3  760  297           
15 20.04.17 010 (С) 20000 м    3/0 верхняя 
[Ci fib]
+7.7 -2.2 49 +6  1021.4  -0.3  759  298    +8.3       
18 20.04.17 030 (СВ) 9-11{12}  20000 м    3/0 верхняя 
[Ci sp]
+5.1 -1.2 64 +2  1022.7  1.2  760  301           
21 20.04.17 060 (СВ) 8-11{13}  20000 м    10/10 600 м 
[Sc]
+2.8 -2.5 68 -1  1023.3  0.6  761  304           
00 21.04.17 060 (СВ) 8-11{12}  н/о    н/о 
+2 -3 69 -2  1021.9  -1.4  760  304           
03 21.04.17 060 (СВ) 9-12{12}  20000 м    10/8 600 м средняя, верхняя 
[Sc|Ac As|Ci sp]
+1.6 -2.8 73 -3  1021.4  -0.5  759  304  +1.4        сухая 
06 21.04.17 090 (В) 7-10{15}  20000 м    10/6 600 м средняя 
[Sc|Ac As]
+3.9 -3 61 +1  1020.8  -0.5  759  302           
09 21.04.17 090 (В) 8-12{12}  20000 м    10/6 600 м средняя 
[Sc|Ac As]
+6 -1.7 58 +3  1018.6  -2.1  757  299           
12 21.04.17 110 (В) 8-13{13}  20000 м    10/10 600 м 
[Sc]
+7.5 +0.2 60 +5  1016.6  -2  756  296           
15 21.04.17 110 (В) 4{13}  20000 м    10/10 600 м 
[Sc]
+7.8 +1.7 65 +7  1014.7  -1.8  754  295    +8.1       
18 21.04.17 130 (ЮВ) 10 км  слаб. ливневой дождь  10/10 300 м кучево-дожд. 
[Cb cap]
+6.2 +4.3 88 +4  1013.7  -1  754  296           
21 21.04.17 250 (З) 9-13{13}  10 км  слаб. ливневой дождь  10/10 300 м кучево-дожд. 
[Cb cap]
+4.7 +2.8 87 +1  1012.2  -1.6  752  298           
00 22.04.17 200 (Ю) 5{13}  20000 м  в посл. час ливневой дождь  10/10 600 м 
[Sc]
+4.9 +3.2 89 +3  1010.3  -1.8  751  297           
03 22.04.17 200 (Ю) 6-10{10}  20000 м    9/9 600 м 
[Cu Sc]
+4.9 +2.9 87 +2  1008.3  -2  749  296  +3.9    15    мокрая 
06 22.04.17 230 (ЮЗ) 9-14{14}  10 км  слаб. ливневой дождь  10/10 300 м кучево-дожд. 
[Cb cap]
+5.8 +2.9 82 +3  1006.4  -1.8  748  295           
09 22.04.17 270 (З) 8-12{15}  4000 м  слаб. ливневой дождь  10/10 300 м кучево-дожд. 
[Cb cap]
+6 +3.2 82 +3  1007.4  749  295           
12 22.04.17 260 (З) 9-12{19}  20000 м  {ливн. осадки}  9/9 600 м 
[Cu med, cong]
+7.7 +3.5 75 +5  1009.2  1.8  750  293           
15 22.04.17 270 (З) 7-11{16}  20000 м    3/3 600 м 
[Cu hum]
+8.1 +1.4 63 +6  1011.7  2.4  752  294    +9.1     
18 22.04.17 230 (ЮЗ) 6{12}  20000 м    ясно 
+7.4 +2.9 73 +5  1013  1.3  753  295           
21 22.04.17 230 (ЮЗ) 6{12}  20000 м    ясно 
+5.7 +1.7 75 +3  1013.3  0.2  753  297           
00 23.04.17 230 (ЮЗ) 7-10{10}  20000 м    ясно 
+5.2 +1.8 79 +2  1012.9  -0.4  753  297           
03 23.04.17 230 (ЮЗ) 8-10{11}  10 км    9/8 600 м средняя 
[Sc|Ac trans]
+4.9 +2.8 86 +2  1013  0.1  753  298  +4.4        влажная 
Время (UTC), дата Ветер
(°,м/с) 
Видим.   Явления Облачность Т
(°С)
Тd
(°С)
f(%) Тe
(°С)
Pmin
(гПа)
dP
(гПа)
Po
(мм)
O2
(г/м3)
Тmin Tmax R s Состояние
почвы

Для получения пояснительной информации подведите курсор к названию столбца.

ПОГОДА Нижний Чир - архив

Всё, что Вы хотите узнать о погоде Нижний Чир - удобно и подробно!

Выберите нужную дату (начиная с 1 января 2015* года) и нажмите кнопку "Найти".
Будут отображены архивные сводки погоды по пункту Нижний Чир, начиная с указанной даты.


Отображать данные в формате CSV (для использования в таблицах Excel)


Внимание! Наш архив погоды предназначен исключительно для личного некоммерческого использования в познавательных целях. Если Вам необходимы официальные справки о состоянии погоды (для производственных, юридических, коммерческих и т.п. целей), обращайтесь в органы Росгидромета.

*Примечание: данная дата относится к архиву по метеостанциям СССР (Россия, СНГ, Балтия).
Архив по метеостанциям Зарубежной Европы и Азии (кроме Китая) хранится 10 дней, по другим регионам земного шара (Китай, Африка, Америка, Австралия, Океания) - 1 день.

Нижний Чир - район местоположения метеостанции


Название, широта, долгота, высота метеостанции:
Нижний Чир 48.3°ш. 43.1°д. 68 м над ур. моря [Российская Федерация]

Дополнительная информация

В oтличие oт бoльшинства пoгoдных сайтoв мы публикуем пoдрoбную метеoинфoрмацию в детальнoм прoфессиoнальнoм фoрмате.

Характеристики температуры и влажнoсти вoздуха измеряются на высoте 2 м в тени вдали oт зданий и деревьев.
Скoрoсть ветра измеряется на высoте 10 м (на урoвне рoста челoвека скoрoсть ветра ниже в 1.5-2 раза). Если метеoстанция нахoдится в гoрoде или в лесу, тo скoрoсть ветра занижена на 2-4 м/с пo сравнению с oткрытым местoм. Скoрoсть ветра над акватoриями крупных рек и oзёр, а также на вершинах хoлмoв на 2-5 м/с выше, чем в oбычных услoвиях.
Атмoсфернoе давление в разных тoчках местнoсти мoжет значительнo oтличаться oт давления на метеoстанции, в зависимoсти oт услoвий рельефа (при пoдъёме на 10 м давление пoнижается примернo на 1 мм рт.ст.).